Location: Elaina
(34.1445°N, 106.7742°W)
Time: 07:16:52
(UTC+00:00)

Cosmos 2219 Rocket - Pass Details

Date: 11 December 2025
Orbit: 827 x 845 km, 71.0° (Epoch: 13 January)

Event Time Altitude Azimuth Distance (km) Brightness Sun altitude
Rises 12:38:33 0° 351° (N) 3,402 5.1 -17.0°
Reaches altitude 10° 12:41:24 10° 4° (N) 2,461 4.5 -16.4°
Maximum altitude 12:46:06 26° 60° (ENE) 1,578 4.1 -15.5°
Drops below altitude 10° 12:50:45 10° 117° (ESE) 2,440 6.0 -14.6°
Sets 12:53:34 0° 129° (SE) 3,367 6.7 -14.0°
